EN

Hourly Weather Lagutovka

Today, 23 July, Friday

Time Temperature Precipitation Wind Pressure Humidity
00:00 +17°C° 0 mm 2 mps 732 mmHg 97%
01:00 +16°C° 0 mm 3 mps 733 mmHg 97%
02:00 +16°C° 0 mm 2 mps 733 mmHg 97%
03:00 +16°C° 0 mm 1 mps 734 mmHg 97%
04:00 +15°C° 0 mm 1 mps 734 mmHg 97%
05:00 +16°C° 0 mm 1 mps 734 mmHg 96%
06:00 +16°C° 0 mm 1 mps 734 mmHg 95%
07:00 +16°C° 0 mm 2 mps 734 mmHg 94%
08:00 +17°C° 0 mm 2 mps 734 mmHg 88%
09:00 +19°C° 0 mm 1 mps 734 mmHg 82%
10:00 +20°C° 0 mm 1 mps 735 mmHg 76%
11:00 +21°C° 0 mm 1 mps 735 mmHg 72%
12:00 +21°C° 0 mm 1 mps 735 mmHg 68%
13:00 +21°C° 0 mm 2 mps 735 mmHg 64%
14:00 +21°C° 0 mm 2 mps 735 mmHg 62%
15:00 +23°C° 0 mm 2 mps 735 mmHg 60%
16:00 +23°C° 0 mm 2 mps 734 mmHg 57%
17:00 +23°C° 0 mm 2 mps 734 mmHg 61%
18:00 +22°C° 0 mm 1 mps 735 mmHg 65%
19:00 +21°C° 0 mm 1 mps 735 mmHg 69%
20:00 +20°C° 0 mm 1 mps 735 mmHg 72%
21:00 +19°C° 0 mm 1 mps 735 mmHg 76%
22:00 +18°C° 0 mm 1 mps 735 mmHg 79%
23:00 +16°C° 0 mm 1 mps 735 mmHg 80%

Tomorrow, 24 July, Saturday

Time Temperature Precipitation Wind Pressure Humidity
00:00 +16°C° 0 mm 1 mps 735 mmHg 82%
01:00 +16°C° 0 mm 1 mps 734 mmHg 83%
02:00 +15°C° 0 mm 1 mps 735 mmHg 83%
03:00 +15°C° 0 mm 1 mps 735 mmHg 84%
04:00 +15°C° 0 mm 1 mps 735 mmHg 85%
05:00 +16°C° 0 mm 1 mps 735 mmHg 80%
06:00 +18°C° 0 mm 1 mps 735 mmHg 75%
07:00 +19°C° 0 mm 1 mps 736 mmHg 70%
08:00 +21°C° 0 mm 1 mps 736 mmHg 60%
09:00 +23°C° 0 mm 2 mps 736 mmHg 50%
10:00 +24°C° 0 mm 2 mps 736 mmHg 41%
11:00 +25°C° 0 mm 2 mps 736 mmHg 37%
12:00 +26°C° 0 mm 3 mps 737 mmHg 34%
13:00 +27°C° 0 mm 3 mps 737 mmHg 31%
14:00 +27°C° 0 mm 3 mps 737 mmHg 32%
15:00 +27°C° 0 mm 3 mps 737 mmHg 33%
16:00 +26°C° 0 mm 3 mps 737 mmHg 34%
17:00 +25°C° 0 mm 2 mps 737 mmHg 42%
18:00 +23°C° 0 mm 2 mps 738 mmHg 49%
19:00 +22°C° 0 mm 1 mps 738 mmHg 57%
20:00 +21°C° 0 mm 1 mps 738 mmHg 61%
21:00 +19°C° 0 mm 1 mps 739 mmHg 65%
22:00 +18°C° 0 mm 1 mps 739 mmHg 69%
23:00 +16°C° 0.1 mm 1 mps 740 mmHg 76%

Day after tomorrow, 25 July, Sunday

Time Temperature Precipitation Wind Pressure Humidity
00:00 +15°C° 0.1 mm 1 mps 740 mmHg 83%
01:00 +14°C° 0.1 mm 1 mps 740 mmHg 90%
02:00 +13°C° 0 mm 1 mps 741 mmHg 92%
03:00 +13°C° 0 mm 1 mps 741 mmHg 94%
04:00 +12°C° 0 mm 1 mps 742 mmHg 96%
05:00 +13°C° 0 mm 1 mps 742 mmHg 94%
06:00 +14°C° 0 mm 1 mps 743 mmHg 92%
07:00 +15°C° 0 mm 1 mps 743 mmHg 90%
08:00 +16°C° 0.1 mm 2 mps 744 mmHg 79%
09:00 +18°C° 0.1 mm 3 mps 744 mmHg 68%
10:00 +19°C° 0.1 mm 3 mps 744 mmHg 57%
11:00 +20°C° 0 mm 3 mps 745 mmHg 49%
12:00 +20°C° 0 mm 3 mps 745 mmHg 42%
13:00 +21°C° 0 mm 4 mps 745 mmHg 35%
14:00 +21°C° 0 mm 4 mps 745 mmHg 33%
15:00 +22°C° 0 mm 4 mps 745 mmHg 31%
16:00 +22°C° 0 mm 3 mps 746 mmHg 29%
17:00 +21°C° 0 mm 3 mps 746 mmHg 37%
18:00 +19°C° 0 mm 2 mps 746 mmHg 44%
19:00 +19°C° 0 mm 1 mps 746 mmHg 51%
20:00 +16°C° 0 mm 1 mps 746 mmHg 54%
21:00 +15°C° 0 mm 1 mps 747 mmHg 57%
22:00 +13°C° 0 mm 1 mps 747 mmHg 59%
23:00 +12°C° 0 mm 1 mps 747 mmHg 62%

26 July, Monday

Time Temperature Precipitation Wind Pressure Humidity
00:00 +11°C° 0 mm 1 mps 748 mmHg 66%
01:00 +11°C° 0 mm 1 mps 748 mmHg 69%
02:00 +10°C° 0 mm 1 mps 748 mmHg 72%
03:00 +8°C° 0 mm 0 mps 748 mmHg 75%
04:00 +8°C° 0 mm 0 mps 749 mmHg 78%
05:00 +10°C° 0 mm 1 mps 749 mmHg 72%
06:00 +12°C° 0 mm 1 mps 749 mmHg 66%
07:00 +14°C° 0 mm 1 mps 750 mmHg 60%
08:00 +15°C° 0 mm 1 mps 750 mmHg 52%
09:00 +17°C° 0 mm 2 mps 749 mmHg 45%
10:00 +19°C° 0 mm 3 mps 749 mmHg 37%
11:00 +20°C° 0 mm 3 mps 749 mmHg 35%
12:00 +20°C° 0 mm 3 mps 749 mmHg 34%
13:00 +21°C° 0 mm 3 mps 749 mmHg 32%
14:00 +21°C° 0 mm 3 mps 749 mmHg 32%
15:00 +21°C° 0 mm 3 mps 749 mmHg 31%
16:00 +21°C° 0 mm 2 mps 748 mmHg 31%
17:00 +20°C° 0 mm 2 mps 748 mmHg 37%
18:00 +20°C° 0 mm 1 mps 748 mmHg 43%
19:00 +19°C° 0 mm 1 mps 747 mmHg 50%
20:00 +18°C° 0 mm 1 mps 748 mmHg 53%
21:00 +15°C° 0 mm 1 mps 748 mmHg 56%
22:00 +14°C° 0 mm 1 mps 748 mmHg 60%
23:00 +14°C° 0 mm 1 mps 748 mmHg 59%

27 July, Tuesday

Time Temperature Precipitation Wind Pressure Humidity
00:00 +14°C° 0 mm 1 mps 748 mmHg 58%
01:00 +13°C° 0 mm 0 mps 748 mmHg 57%
02:00 +14°C° 0 mm 1 mps 748 mmHg 56%
03:00 +14°C° 0 mm 1 mps 747 mmHg 56%
04:00 +14°C° 0 mm 1 mps 747 mmHg 55%
05:00 +15°C° 0 mm 1 mps 747 mmHg 55%
06:00 +15°C° 0 mm 1 mps 747 mmHg 55%
07:00 +16°C° 0 mm 1 mps 748 mmHg 55%
08:00 +18°C° 0 mm 2 mps 747 mmHg 49%
09:00 +19°C° 0 mm 2 mps 747 mmHg 43%
10:00 +21°C° 0 mm 3 mps 747 mmHg 37%
11:00 +22°C° 0 mm 3 mps 746 mmHg 35%
12:00 +24°C° 0 mm 3 mps 746 mmHg 33%
13:00 +25°C° 0 mm 3 mps 746 mmHg 31%
14:00 +24°C° 0 mm 3 mps 745 mmHg 38%
15:00 +22°C° 0 mm 3 mps 745 mmHg 44%
16:00 +21°C° 0 mm 3 mps 745 mmHg 51%
17:00 +21°C° 0 mm 2 mps 745 mmHg 55%
18:00 +20°C° 0 mm 2 mps 745 mmHg 59%
19:00 +20°C° 0 mm 2 mps 744 mmHg 63%
20:00 +19°C° 0.3 mm 1 mps 744 mmHg 73%
21:00 +16°C° 0.3 mm 1 mps 745 mmHg 83%
22:00 +13°C° 0.3 mm 0 mps 745 mmHg 92%
23:00 +13°C° 0 mm 0 mps 745 mmHg 93%

28 July, Wednesday

Time Temperature Precipitation Wind Pressure Humidity
00:00 +13°C° 0 mm 0 mps 745 mmHg 93%
01:00 +13°C° 0 mm 0 mps 745 mmHg 93%
02:00 +12°C° 0 mm 0 mps 745 mmHg 94%
03:00 +13°C° 0 mm 1 mps 745 mmHg 95%
04:00 +12°C° 0 mm 1 mps 745 mmHg 95%
05:00 +12°C° 0 mm 1 mps 745 mmHg 93%
06:00 +13°C° 0 mm 1 mps 745 mmHg 91%
07:00 +14°C° 0 mm 2 mps 746 mmHg 88%
08:00 +15°C° 0 mm 2 mps 746 mmHg 74%
09:00 +17°C° 0 mm 2 mps 746 mmHg 60%
10:00 +19°C° 0 mm 2 mps 746 mmHg 46%
11:00 +20°C° 0 mm 2 mps 746 mmHg 42%
12:00 +21°C° 0 mm 2 mps 745 mmHg 37%
13:00 +23°C° 0 mm 2 mps 745 mmHg 33%
14:00 +23°C° 0 mm 2 mps 745 mmHg 32%
15:00 +24°C° 0 mm 2 mps 745 mmHg 31%
16:00 +24°C° 0 mm 2 mps 745 mmHg 30%
17:00 +23°C° 0 mm 2 mps 745 mmHg 37%
18:00 +20°C° 0 mm 2 mps 745 mmHg 45%
19:00 +20°C° 0 mm 1 mps 745 mmHg 52%
20:00 +18°C° 0 mm 1 mps 745 mmHg 56%
21:00 +15°C° 0 mm 1 mps 745 mmHg 61%
22:00 +13°C° 0 mm 1 mps 745 mmHg 65%
23:00 +13°C° 0 mm 1 mps 745 mmHg 66%
Show more